RH
27 19 19 21 22 22 20 22 22 23 23 24 25 26 26 25 26 25 25 26 30 33 30 32 41 63 73 73 77 76 78 78 78 79 80 82 80 81 79 79 86 90 89 88 85 81 79 84 76 42 22 18
28 22 20 21 22 22 21 22 22 23 23 24 25 26 27 27 28 27 28 26 27 27 27 28 26 46 66 70 73 72 73 72 72 74 77 83 84 85 84 89 95 88 81 79 75 72 73 74 55 27 21 18
25 22 21 22 22 24 24 24 23 23 23 24 25 25 27 28 29 29 30 29 29 28 28 30 26 33 53 67 67 65 67 65 67 69 73 79 79 80 84 86 73 54 48 47 44 48 53 47 30 20 21 19
22 20 21 21 23 24 24 24 23 24 23 24 25 26 27 28 30 30 31 31 30 30 29 30 30 29 39 58 63 60 59 54 57 65 71 72 67 63 56 45 28 19 20 21 21 26 29 26 20 20 21 20
19 19 19 20 22 23 24 25 25 24 24 24 25 26 27 27 29 31 31 32 31 31 31 30 32 30 32 45 53 50 44 39 42 55 61 54 47 40 27 19 14 14 14 14 16 18 19 19 18 19 20 21
19 18 19 20 21 23 23 24 25 25 25 25 26 26 27 28 29 31 32 33 33 32 32 31 31 32 31 34 38 37 33 31 32 39 42 35 32 29 23 22 20 17 15 14 15 15 16 16 17 18 19 19
18 18 19 20 21 22 24 25 26 26 27 26 26 27 27 29 29 30 33 33 34 33 33 32 32 32 33 32 32 32 32 32 31 31 32 29 29 28 27 25 23 22 20 17 15 15 15 15 16 17 17 19
18 19 19 20 21 22 23 25 26 26 27 28 27 28 28 29 30 30 33 34 35 35 34 33 33 33 33 33 33 33 33 32 33 32 31 31 30 29 28 27 26 25 23 21 19 17 16 16 16 16 16 17
18 19 19 20 21 22 25 26 27 27 28 29 28 29 29 30 31 31 33 35 36 35 35 34 33 34 34 34 33 34 34 33 33 33 32 32 31 30 30 29 28 27 25 24 22 20 19 17 17 17 17 16
18 20 21 23 24 26 28 28 28 28 28 29 29 30 30 31 32 33 35 37 37 36 36 35 34 35 34 35 34 34 34 34 34 33 33 32 32 32 31 30 29 28 27 26 25 23 21 20 19 18 18 17
23 25 26 27 29 29 29 29 29 29 29 29 30 31 32 34 34 36 38 37 37 37 36 35 35 35 35 35 35 35 35 35 35 34 34 33 33 32 32 31 30 30 29 28 27 25 24 23 22 21 21 21
28 29 30 29 30 30 30 30 30 30 30 31 32 33 35 36 37 38 38 36 36 36 35 35 35 35 35 35 35 35 35 35 35 34 34 34 33 33 32 32 31 31 30 29 29 27 27 25 24 24 23 23
30 31 32 32 33 33 33 33 33 32 32 32 33 34 35 36 37 37 35 35 34 34 34 34 34 35 34 35 35 34 34 34 34 33 33 33 33 33 32 32 32 31 31 30 30 29 28 27 26 25 25 25
32 32 32 32 32 32 32 33 34 34 34 34 34 35 35 35 35 34 34 34 34 34 35 35 35 35 35 34 33 33 33 33 33 33 32 32 33 33 32 32 32 32 32 31 30 31 30 29 29 27 27 26
32 32 32 32 32 32 32 32 33 33 33 33 33 34 33 33 33 32 32 32 32 34 34 35 35 35 34 31 30 31 31 31 32 33 32 32 32 33 33 32 32 32 32 31 31 31 31 31 31 30 29 28
34 35 36 37 37 38 38 38 37 35 34 33 32 34 33 33 33 32 32 31 31 32 32 32 32 32 31 31 31 30 30 30 30 32 32 32 33 33 33 33 33 32 32 32 32 31 32 32 32 32 32 31
38 40 41 42 42 43 43 43 43 43 42 40 37 38 38 37 37 37 36 35 35 34 33 32 31 31 31 34 35 34 34 32 31 31 30 31 33 33 34 33 33 33 33 32 32 32 32 32 32 33 33 33
41 43 43 44 44 41 37 34 36 38 41 43 43 43 43 41 41 40 39 39 38 37 36 35 34 34 34 35 37 38 39 38 37 35 32 31 32 33 34 34 34 33 33 32 32 32 32 32 32 32 32 33
43 44 44 41 36 29 24 21 22 24 26 30 34 39 43 44 44 43 42 41 40 39 38 38 37 36 36 36 37 38 40 41 41 40 38 36 33 32 32 33 34 33 33 32 32 32 32 32 31 32 31 32
43 41 37 30 24 21 21 21 21 20 19 19 21 25 30 37 42 45 45 44 44 43 42 41 40 40 39 38 37 38 39 40 42 42 42 41 37 34 32 32 32 32 32 32 32 32 32 32 31 32 31 30
33 31 27 24 25 27 27 28 27 25 24 21 20 19 20 26 33 40 45 47 49 48 49 49 48 47 45 42 39 38 38 39 41 42 42 42 41 36 34 33 32 31 32 31 32 32 31 31 31 31 31 31
27 28 28 29 32 33 33 33 32 30 27 25 23 21 20 22 28 37 43 48 53 54 55 55 55 54 52 50 47 44 41 39 39 40 41 42 42 39 36 35 34 33 33 33 33 33 33 33 33 32 32 33
32 33 34 36 37 37 38 36 34 30 27 26 25 24 22 22 26 35 43 48 53 55 56 57 57 56 55 55 55 53 50 46 43 40 40 41 41 39 37 36 36 35 35 37 36 35 36 36 35 35 36 36
37 38 37 37 36 36 35 33 31 28 26 28 29 27 25 24 25 31 39 46 51 55 57 58 58 58 57 57 58 58 56 54 52 48 45 43 41 40 39 37 37 36 37 42 41 38 39 38 37 38 38 37
39 39 39 36 34 33 31 30 31 28 29 35 34 30 31 34 36 38 43 50 55 58 60 61 61 61 60 59 60 61 60 59 57 55 53 49 47 44 43 42 39 38 42 47 45 40 40 41 40 40 40 40
38 37 36 32 31 30 28 30 34 37 41 46 42 39 46 54 58 59 59 61 62 63 64 65 65 65 65 64 64 64 62 62 61 60 59 56 54 51 49 48 44 42 45 47 45 42 43 42 41 43 44 43
33 32 30 27 28 30 32 34 38 42 48 52 50 54 63 68 70 70 68 67 67 67 67 68 67 66 65 65 64 64 62 61 60 61 62 62 60 57 55 53 49 46 45 46 47 45 45 41 42 46 44 40
29 29 28 28 30 32 33 36 41 46 52 58 61 67 74 76 77 74 71 70 68 66 65 63 63 62 61 61 61 61 61 60 58 58 60 63 64 63 61 57 53 50 47 47 45 43 44 45 48 49 41 37
29 30 31 32 33 35 39 44 51 58 65 69 73 78 79 76 72 68 65 63 59 55 54 50 48 47 48 50 50 51 55 58 55 53 55 61 65 66 64 60 56 53 51 49 45 42 43 47 51 49 41 40
32 35 41 46 50 54 57 61 66 71 75 77 79 80 75 68 61 58 58 58 53 52 54 51 47 45 47 48 47 48 54 58 57 57 58 61 65 67 66 64 61 58 55 52 49 47 44 45 47 46 42 44
39 45 53 59 65 70 71 72 73 73 74 72 72 69 62 59 57 55 57 57 56 57 60 60 60 60 61 62 62 62 65 66 67 69 67 64 66 66 66 68 66 62 59 57 55 53 49 47 47 45 44 44
Wind_Speed
2 3 4 4 4 4 5 6 7 8 9 10 10 10 11 11 11 11 11 11 12 12 12 12 12 12 12 12 12 12 12 12 12 11 11 11 10 10 10 10 9 6 7 9 11 11 11 10 11 17 20 19
1 2 4 4 4 5 5 6 7 7 8 9 10 10 11 11 11 12 12 12 12 12 12 12 12 12 12 12 12 12 12 12 12 12 11 11 11 10 10 9 7 5 7 10 10 11 10 10 13 17 18 18
1 2 4 5 5 6 6 7 7 7 8 9 9 10 11 12 12 12 12 12 12 12 12 12 12 12 11 11 12 12 12 12 12 12 12 11 11 11 10 8 9 11 11 12 12 12 11 12 15 17 17 17
3 3 4 5 6 7 7 7 8 8 9 9 10 11 12 12 12 12 12 12 12 12 12 12 12 12 12 11 11 12 12 12 12 12 12 11 11 11 10 10 13 13 13 13 13 12 13 14 16 16 16 17
5 5 6 6 7 7 8 8 9 9 10 10 11 11 12 12 12 12 13 12 12 12 12 12 12 12 12 11 11 12 12 12 12 11 11 11 11 11 12 13 14 13 13 13 13 13 14 15 16 16 16 17
6 7 7 8 8 9 9 9 10 10 11 11 12 12 12 12 13 13 13 13 13 12 12 12 12 12 12 12 12 12 13 13 12 11 12 12 12 13 13 13 14 14 14 14 14 14 15 15 16 16 16 17
9 9 9 10 10 10 11 11 12 12 12 13 13 13 13 13 13 13 14 14 13 13 13 12 12 12 13 12 13 13 13 13 13 12 12 13 13 13 13 14 14 14 15 15 16 16 16 16 16 16 17 17
10 11 12 12 12 13 13 13 13 13 14 14 14 14 14 14 14 14 14 14 13 13 13 12 12 12 13 13 13 14 14 14 14 13 13 13 14 14 14 14 14 15 15 16 16 17 17 17 17 17 17 17
12 12 13 14 14 15 14 14 13 13 13 13 14 14 15 15 14 14 14 14 13 13 13 13 12 13 13 13 14 14 15 15 14 14 14 14 15 15 15 15 15 15 16 16 16 17 17 18 18 18 18 17
13 13 13 14 13 13 12 11 11 11 11 11 12 12 13 13 13 13 13 13 12 12 13 12 12 13 13 14 14 15 15 15 15 15 15 15 15 16 16 16 16 16 16 17 17 17 17 18 19 19 19 18
10 9 9 9 8 8 8 8 8 9 9 9 9 10 10 11 11 11 11 11 11 11 12 12 12 13 13 14 14 15 16 15 15 15 15 15 15 16 16 16 16 16 16 17 17 17 18 18 19 20 20 20
3 3 4 5 6 7 8 8 8 9 9 9 8 8 8 9 9 9 9 10 10 10 11 11 11 12 13 13 14 14 15 15 15 15 15 15 16 16 16 16 17 17 17 17 17 18 18 18 19 20 21 22
8 8 8 9 9 10 10 10 10 9 9 9 8 8 7 7 7 8 9 10 10 11 11 11 12 12 13 13 14 14 14 15 15 15 15 16 16 16 16 16 17 17 17 17 17 18 18 19 19 21 22 23
13 12 12 12 12 12 12 12 11 11 10 9 9 8 8 8 8 10 11 12 12 13 13 13 14 14 14 15 14 14 14 14 15 16 16 16 16 17 17 17 17 18 18 18 18 18 19 19 20 21 22 23
16 16 16 16 16 16 16 16 15 14 13 12 11 11 10 10 11 12 12 13 13 13 14 14 14 14 14 15 14 14 14 14 15 16 16 17 17 17 17 18 18 18 19 19 18 18 19 19 20 21 21 23
19 19 19 19 19 19 19 19 18 17 16 15 14 14 13 13 13 13 13 13 13 13 13 13 13 13 13 13 13 13 14 15 15 16 17 17 17 17 18 18 18 18 19 19 19 19 19 20 21 21 22 23
21 20 20 20 19 19 18 18 17 17 17 16 15 15 15 14 14 14 14 14 14 14 14 14 13 13 13 13 13 13 14 15 15 16 17 18 18 18 19 19 19 18 19 20 20 20 20 21 21 22 22 23
19 19 18 17 17 16 16 16 15 15 15 15 14 15 15 16 16 16 16 16 16 15 15 15 14 14 15 14 14 14 15 16 16 17 17 18 18 19 19 20 19 19 20 20 21 20 20 21 22 23 23 23
16 15 15 14 14 15 16 15 15 15 14 13 13 13 13 14 15 16 17 17 18 18 18 18 18 17 17 16 16 16 16 17 17 18 18 18 19 19 19 20 20 20 21 21 21 21 21 22 22 23 24 24
13 12 12 13 14 15 15 16 17 17 16 15 14 14 13 13 14 14 16 17 18 19 19 20 21 21 21 20 20 19 18 18 18 19 19 19 19 20 19 19 20 20 21 22 22 22 22 22 23 23 24 23
13 12 12 12 14 15 15 16 18 18 18 17 17 16 16 15 15 14 15 16 17 18 19 20 21 22 22 23 23 23 22 21 20 20 21 21 20 20 20 20 20 20 21 22 22 22 22 22 22 23 23 23
14 13 12 13 14 16 17 18 19 21 20 18 18 17 17 17 17 17 16 16 17 18 19 19 20 21 20 21 23 24 24 24 23 23 23 23 22 21 21 22 22 22 22 23 23 23 23 23 23 22 22 23
13 13 14 15 17 18 20 21 22 23 23 21 19 18 17 17 17 18 18 18 18 19 19 19 20 20 19 19 20 22 23 23 24 25 26 26 24 24 23 23 23 24 24 23 23 23 24 23 22 23 24 23
18 19 20 22 22 22 23 23 23 24 23 21 20 20 19 18 17 18 19 19 19 19 19 19 19 19 18 18 19 20 21 21 23 25 27 27 26 26 26 25 25 24 23 22 23 24 24 22 21 23 22 19
24 23 23 24 24 23 23 22 22 23 22 20 20 20 20 19 18 18 18 18 18 18 18 18 19 19 18 18 19 20 20 20 21 22 25 26 27 27 26 26 25 23 21 17 16 18 18 20 23 20 16 17
26 25 23 23 22 22 22 20 20 20 19 19 20 19 18 18 18 17 17 17 17 18 18 19 19 19 19 19 19 20 20 20 20 20 22 24 26 26 26 25 25 23 18 10 9 10 10 13 16 12 11 15
27 25 24 24 22 21 20 19 18 19 18 20 21 20 19 17 17 16 16 16 18 19 20 21 21 22 21 21 21 22 22 21 21 21 21 22 24 25 24 24 25 24 19 13 10 7 5 6 7 5 6 5
28 26 25 24 23 21 21 20 21 22 21 22 22 20 19 17 16 16 17 18 19 21 22 23 24 24 24 24 23 24 24 24 23 22 22 22 23 23 21 21 23 25 22 18 13 6 3 2 4 5 3 2
28 27 27 27 26 26 24 23 23 23 22 23 21 19 18 18 19 20 21 21 22 23 24 25 25 26 26 26 26 25 25 25 25 24 23 22 23 22 21 20 21 23 23 22 19 13 7 3 3 4 3 6
27 26 25 25 24 22 21 19 19 19 19 20 19 19 20 22 23 23 23 22 22 22 22 23 24 24 25 25 25 25 24 24 24 24 24 24 23 23 23 22 20 20 23 24 24 22 19 15 12 8 4 5
26 24 23 22 20 17 16 15 16 17 18 18 18 20 22 22 22 22 21 21 20 20 19 20 20 20 21 22 22 22 22 21 21 22 23 24 24 23 23 22 20 20 21 22 23 25 27 26 24 19 11 6
Wind_Direction
128 74 62 53 45 42 44 46 44 38 35 36 35 34 34 34 34 32 33 34 34 32 30 32 33 33 28 26 26 24 24 22 20 18 16 14 11 8 6 3 4 10 9 3 2 360 0 358 329 321 330 334
146 21 23 23 19 21 26 30 29 24 21 20 23 24 24 26 25 24 23 23 24 23 22 22 25 29 25 21 22 21 21 19 18 16 13 13 11 8 8 5 353 339 332 335 342 346 352 339 319 322 328 331
263 341 349 354 357 2 8 13 13 10 7 4 7 11 14 16 17 16 14 15 15 15 16 16 17 21 21 17 16 15 14 14 13 12 12 10 9 7 6 353 328 319 317 319 322 327 330 319 317 324 328 332
281 310 321 331 336 343 349 353 356 355 353 351 352 356 0 4 6 6 6 6 6 6 8 10 13 14 15 12 8 8 7 5 6 7 7 5 2 357 348 333 326 328 326 323 322 321 319 316 320 327 329 333
284 300 309 318 321 327 330 333 336 337 339 339 339 341 345 350 354 356 356 357 357 358 360 3 6 7 9 7 1 360 357 355 356 359 357 352 348 340 332 330 331 333 332 331 329 325 322 321 325 329 331 333
287 296 304 310 312 315 315 318 318 319 323 325 327 327 331 336 341 345 346 347 347 349 352 355 359 359 0 359 354 352 351 349 348 347 344 338 334 331 326 326 327 328 331 333 332 330 328 327 328 331 332 332
283 290 295 299 303 307 307 308 307 308 310 312 316 318 321 326 329 334 336 338 339 341 345 348 351 351 351 351 349 347 346 345 343 341 337 333 330 327 324 322 323 324 327 329 330 331 330 330 330 331 332 331
281 287 292 296 300 304 304 305 304 304 304 307 310 312 315 318 320 323 327 331 333 335 337 341 344 344 344 344 344 342 341 341 340 339 335 333 330 327 326 324 322 321 321 323 325 328 329 330 330 330 330 329
282 288 293 298 302 304 305 305 304 305 306 308 310 311 313 313 314 316 321 326 329 331 332 335 338 338 338 339 339 337 337 338 338 338 335 332 331 331 330 328 325 323 320 320 321 323 325 327 328 328 328 326
289 295 300 304 306 306 309 310 310 311 312 312 312 312 312 312 313 315 320 325 328 330 329 331 334 334 334 334 336 333 333 335 336 336 335 332 331 331 331 330 328 326 323 320 318 318 319 321 323 325 325 324
300 305 307 311 314 316 320 321 320 317 314 312 311 312 312 314 316 318 322 326 329 328 328 330 331 330 330 330 331 330 330 331 333 332 332 331 330 329 328 328 327 326 325 322 319 316 315 316 318 320 321 322
348 352 352 356 357 355 351 346 338 328 321 314 309 308 310 315 319 322 324 325 327 325 325 326 325 325 324 324 324 324 325 327 328 327 327 327 326 327 326 326 326 324 324 323 322 319 315 313 313 314 316 318
65 54 45 36 29 22 14 6 358 349 340 328 318 313 313 317 321 324 324 324 323 320 320 318 316 316 315 315 317 319 320 321 321 320 320 321 321 322 322 323 323 323 323 323 323 321 319 315 312 311 311 313
66 59 52 45 40 34 28 23 15 8 1 353 344 337 334 334 332 331 329 326 324 320 318 316 314 313 312 313 316 316 315 314 314 314 314 314 316 317 318 319 319 321 320 320 322 322 321 319 316 312 310 310
70 65 60 55 52 48 44 39 34 29 22 17 12 6 1 356 351 346 342 338 334 328 324 321 318 317 316 320 322 317 314 313 310 309 309 309 311 313 313 314 315 317 317 317 319 320 321 321 319 316 313 310
72 68 63 58 53 48 45 42 38 35 30 27 24 20 16 10 6 1 356 353 348 341 335 329 324 322 322 326 328 321 318 317 313 309 307 307 307 308 308 309 310 312 313 313 315 316 318 319 318 317 316 313
68 62 56 51 46 42 37 35 32 28 24 20 17 13 9 6 3 359 355 352 349 344 339 335 330 327 327 328 328 326 324 323 320 316 313 311 307 306 306 306 307 308 308 309 311 314 315 316 316 317 316 315
64 58 53 47 41 35 28 27 23 20 16 10 6 1 357 354 350 348 345 342 339 335 331 330 327 326 327 326 323 323 324 323 323 322 320 319 312 308 306 304 306 306 307 308 309 312 314 314 314 315 315 316
67 61 54 46 39 33 28 27 24 20 14 5 358 349 344 342 338 335 333 331 328 325 323 320 318 319 320 319 315 315 316 317 320 319 320 320 316 312 309 306 306 306 306 308 309 311 313 313 313 315 316 316
72 64 55 47 40 37 33 30 25 21 15 8 360 350 341 334 329 326 324 323 321 319 318 316 314 312 313 310 306 306 307 308 312 313 314 316 314 311 311 309 307 308 307 307 309 310 311 312 313 315 316 316
72 65 58 51 41 34 27 23 19 15 11 6 1 354 347 340 335 329 326 324 322 320 317 316 314 310 308 305 302 300 299 300 303 305 305 308 309 306 306 307 307 308 308 306 307 308 310 312 313 314 316 318
65 58 50 40 30 21 15 12 8 6 4 1 357 351 344 339 337 334 331 329 327 325 321 319 317 313 311 309 306 302 299 297 297 298 299 301 303 301 300 301 303 305 304 303 304 306 309 311 312 314 316 318
46 37 29 19 13 7 5 2 359 359 358 355 352 347 342 335 331 331 330 331 331 329 326 324 322 320 319 318 316 311 306 302 298 297 297 298 299 297 296 296 298 300 299 299 300 302 306 309 309 313 316 316
27 20 15 10 6 2 1 359 356 356 355 353 348 344 342 337 332 329 328 330 331 331 331 329 328 327 326 325 325 321 317 312 307 303 299 297 296 295 293 293 294 296 295 297 298 300 303 304 308 311 312 312
24 20 14 9 6 2 360 359 356 354 354 351 346 344 344 344 342 338 335 334 334 335 335 335 334 334 333 333 332 329 325 321 316 311 305 300 296 294 292 290 293 293 294 296 297 300 301 301 307 310 308 310
21 18 12 6 3 359 357 358 355 354 354 350 348 352 354 355 354 348 343 340 338 339 339 339 338 337 338 337 336 333 329 326 322 317 313 306 298 295 291 287 289 290 287 284 287 300 303 304 308 303 304 308
14 10 7 4 2 0 357 358 355 353 354 353 354 360 2 2 358 351 345 341 339 339 338 338 337 337 336 335 336 335 332 329 327 323 320 313 303 297 292 287 287 286 278 268 276 294 290 309 323 298 299 290
9 5 2 1 0 359 357 356 355 355 357 358 359 1 2 1 354 346 341 337 335 334 333 331 331 331 330 329 330 331 331 329 327 325 322 318 309 298 289 283 285 285 277 266 264 271 274 316 318 282 297 292
6 4 1 360 358 357 357 357 359 360 358 357 359 357 354 347 339 337 335 333 332 331 330 327 327 327 326 325 323 324 326 324 323 322 321 319 312 300 288 280 282 282 277 269 258 249 254 272 274 265 315 321
6 7 6 7 7 4 3 3 3 1 355 352 352 346 340 336 334 335 335 334 334 334 332 330 328 328 328 327 325 324 323 320 320 319 319 319 312 303 294 285 278 276 275 272 261 248 246 250 257 268 303 319
8 11 12 15 18 15 10 4 357 352 346 342 339 334 333 334 336 338 338 339 339 340 339 337 337 337 337 335 332 330 324 320 319 317 316 316 312 306 299 287 272 269 272 270 261 252 249 247 249 254 256 262